Tampa, FL

2:01 PM EST on December 16, 2017 (GMT -0500)
Tampa International

Weather History for KTPA - May, 2013

Change the Weather History Date:

Tuesday, May 7, 2013

  Actual Average Record
Temperature  
Mean Temperature 71 °F 77 °F  
Max Temperature 78 °F 86 °F 93 °F (1975)
Min Temperature 63 °F 68 °F 56 °F (1992)
Degree Days  
Heating Degree Days 0 0  
Month to date heating degree days 0 0  
Since 1 July heating degree days 400 538  
Cooling Degree Days 6 12  
Month to date cooling degree days 51 77  
Year to date cooling degree days 629 537  
Growing Degree Days 20 (Base 50)    
Moisture  
Dew Point 57 °F    
Average Humidity 64    
Maximum Humidity 78    
Minimum Humidity 50    
Precipitation  
Precipitation 0.00 in 0.06 in 1.16 in (1939)
Month to date precipitation 1.01 0.37  
Year to date precipitation 8.28 10.47  
Sea Level Pressure  
Sea Level Pressure 30.03 in    
Wind  
Wind Speed 8 mph (West)    
Max Wind Speed 16 mph    
Max Gust Speed 21 mph    
Visibility 10 miles    
Events      
T = Trace of Precipitation, MM = Missing Value Source: NWS Daily Summary

Daily Weather History Graph

Daily Weather History Graph

Search for Another Location

Airport or City:

Trip Planner

Search our weather history database for the weather conditions in past years. The results will help you decide how hot, cold, wet, or windy it might be!

Date:

Astronomy

May. 07, 2013 Rise Set
Actual Time 6:45 AM EDT 8:08 PM EDT
Civil Twilight 6:20 AM EDT 8:33 PM EDT
Nautical Twilight 5:50 AM EDT 9:03 PM EDT
Astronomical Twilight 5:19 AM EDT 9:34 PM EDT
Moon 5:07 AM EDT (5/7) 6:15 PM EDT (5/7)
Length of Visible Light 14h 13m
Length of Day
13h 22m
Waning Crescent, 5% of the Moon is Illuminated
May 7
Waning Crescent
May 9
New
May 18
First Quarter
May 25
Full
May 31
Last Quarter

Hourly Weather History & Observations

Time (EDT) Temp. Dew Point Humidity Pressure Visibility Wind Dir Wind Speed Gust Speed Precip Events Conditions
12:53 AM 63.0 °F 54.0 °F 72% 30.03 in 10.0 mi NW 3.5 mph - N/A   Scattered Clouds
1:53 AM 63.0 °F 55.0 °F 75% 30.01 in 10.0 mi NW 4.6 mph - N/A   Scattered Clouds
2:53 AM 64.0 °F 55.0 °F 73% 30.00 in 10.0 mi Calm Calm - N/A   Clear
3:53 AM 62.6 °F 55.4 °F 77% 29.99 in 10.0 mi Calm Calm - N/A   Partly Cloudy
4:53 AM 63.0 °F 55.9 °F 78% 30.00 in 10.0 mi Calm Calm - N/A   Scattered Clouds
5:53 AM 64.9 °F 55.9 °F 73% 30.00 in 10.0 mi NW 3.5 mph - N/A   Mostly Cloudy
6:53 AM 66.0 °F 55.0 °F 68% 30.02 in 10.0 mi NW 4.6 mph - N/A   Mostly Cloudy
7:53 AM 69.1 °F 55.9 °F 63% 30.04 in 10.0 mi Variable 4.6 mph - N/A   Scattered Clouds
8:53 AM 70.0 °F 55.9 °F 61% 30.04 in 10.0 mi South 8.1 mph - N/A   Partly Cloudy
9:53 AM 71.1 °F 55.9 °F 59% 30.05 in 10.0 mi SSW 8.1 mph - N/A   Partly Cloudy
10:53 AM 73.0 °F 55.9 °F 55% 30.06 in 10.0 mi WSW 6.9 mph - N/A   Mostly Cloudy
11:53 AM 75.0 °F 57.0 °F 53% 30.07 in 10.0 mi West 12.7 mph - N/A   Scattered Clouds
12:53 PM 75.9 °F 57.9 °F 54% 30.06 in 10.0 mi WSW 11.5 mph - N/A   Partly Cloudy
1:53 PM 75.9 °F 55.9 °F 50% 30.05 in 10.0 mi WSW 9.2 mph - N/A   Partly Cloudy
2:53 PM 77.0 °F 57.9 °F 52% 30.04 in 10.0 mi WSW 12.7 mph - N/A   Scattered Clouds
3:53 PM 77.0 °F 57.0 °F 50% 30.03 in 10.0 mi West 15.0 mph - N/A   Scattered Clouds
4:53 PM 75.9 °F 57.0 °F 52% 30.02 in 10.0 mi West 15.0 mph - N/A   Partly Cloudy
5:53 PM 75.0 °F 55.9 °F 51% 30.02 in 10.0 mi West 15.0 mph - N/A   Scattered Clouds
6:53 PM 73.9 °F 57.9 °F 57% 30.02 in 10.0 mi West 12.7 mph - N/A   Scattered Clouds
7:53 PM 73.0 °F 57.9 °F 59% 30.03 in 10.0 mi WNW 11.5 mph - N/A   Scattered Clouds
8:53 PM 72.0 °F 59.0 °F 64% 30.05 in 10.0 mi WNW 10.4 mph - N/A   Clear
9:53 PM 71.1 °F 60.1 °F 68% 30.06 in 10.0 mi West 8.1 mph - N/A   Partly Cloudy
10:53 PM 71.1 °F 61.0 °F 70% 30.07 in 10.0 mi WNW 9.2 mph - N/A   Partly Cloudy
11:53 PM 69.1 °F 61.0 °F 75% 30.07 in 10.0 mi Calm Calm - N/A   Clear